Weather Roundup
Issued by NWS

Home | Current Version | Previous Version | Text Only | Print | Product List | Glossary On
Versions: 1 2 3 4 5 6 7 8 9 10 11 12 13 14 15 16 17 18 19 20 21 22 23 24 25 26 27 28 29 30 31 32 33 34 35 36 37 38 39 40 41 42 43 44 45 46 47 48 49 50
877
NZUS93 KARX 231210
HRRWXR

CURRENT HOURLY OBSERVATIONS ACROSS
MUCH OF THE UPPER MISSISSIPPI VALLEY
NATIONAL WEATHER SERVICE LA CROSSE WI
700 AM CDT WED AUG 23 2017


...SOUTHEAST MINNESOTA...


CITY           SKY/WX    TMP DP  RH WIND       PRES   REMARKS
ROCHESTER      CLEAR     50  49  96 W6        30.11R
ROCHESTER/MAYO FAIR      54  49  85 W6        30.11R
WINONA         CLEAR     54  50  87 CALM      30.09R
AUSTIN         CLEAR     52  48  87 CALM      30.12R
ALBERT LEA     CLEAR     55  52  88 W3        30.13R
DODGE CENTER   CLEAR     50  46  87 W6        30.11R
PRESTON        CLEAR     51  47  87 W8        30.10S
OWATONNA       CLEAR     48  46  93 CALM      30.12R
FARIBAULT      CLEAR     50  48  93 CALM      30.12R
$$

...ELSEWHERE IN MINNESOTA...


CITY           SKY/WX    TMP DP  RH WIND       PRES   REMARKS
MINNEAPOLIS    CLEAR     57  50  77 W5        30.10R
INTNL FALLS    PTCLDY    48  47  96 CALM      30.08S FOG
DULUTH         PTCLDY    50  49  96 NW6       30.06R
RED WING       CLEAR     52  48  87 CALM      30.09R
REDWOOD FALLS  CLEAR     52  47  83 W5        30.12S
MANKATO        CLEAR     52  50  93 W3        30.13R
WORTHINGTON    CLEAR     50  47  89 W3        30.16R
FAIRMONT       CLEAR     53  49  86 W5        30.14R
$$

...SOUTHWEST WISCONSIN...


CITY           SKY/WX    TMP DP  RH WIND       PRES   REMARKS
LA CROSSE      CLEAR     56  52  86 SE5       30.07R
PRAIRIE DU CHI CLEAR     54  48  81 CALM      30.09R
BOSCOBEL       CLEAR     52  50  93 CALM      30.08R
LONE ROCK      CLEAR     51  50  96 W3        30.07R
PLATTEVILLE    CLEAR     51  51 100 W3        30.08R
FORT MC COY    CLEAR     45  44  97 CALM      30.08R
CAMP DOUGLAS   CLEAR     48  48 100 W5        30.05R
MAUSTON-NEW LI SUNNY     54  50  88 NW5       30.05R
VIROQUA        FAIR      51  51  98 W5        30.08R
WIS DELLS      CLEAR     55  49  80 W5        30.05S
$$

...ELSEWHERE IN WISCONSIN...


CITY           SKY/WX    TMP DP  RH WIND       PRES   REMARKS
MILWAUKEE      CLEAR     62  51  67 NW8       30.01R
MADISON        CLEAR     56  51  84 NW6       30.04R
GREEN BAY      CLEAR     54  53  97 W7        29.99R
EAU CLAIRE     MOCLDY    52  49  89 W5        30.07R
BLACK RVR FLS  FAIR      44  44 100 CALM      30.06R
MEDFORD        CLEAR     48  48  99 W3        30.05R
WAUSAU         CLEAR     53  51  93 NW3       30.02R
WIS RAPIDS     CLEAR     51  49  92 NW3       30.06R
MARSHFIELD     CLEAR     52  49  89 NW8       30.04R
RICE LAKE      CLEAR     49  49  97 CALM      30.09R
$$

...NORTHEAST IOWA...


CITY           SKY/WX    TMP DP  RH WIND       PRES   REMARKS
WATERLOO       CLEAR     50  48  93 CALM      30.11R
DUBUQUE        CLEAR     50  47  89 SW3       30.09R
DECORAH        CLEAR     52  50  93 CALM      30.09S
MASON CITY     CLEAR     50  47  89 W8        30.14R
CHARLES CITY   CLEAR     50  50 100 NW5       30.12R
OELWEIN        CLEAR     50  50 100 NW6       30.11S
$$

...ELSEWHERE IN IOWA...


CITY           SKY/WX    TMP DP  RH WIND       PRES   REMARKS
DES MOINES     PTCLDY    55  53  93 CALM      30.14R
IOWA CITY        N/A     54  50  86 CALM      30.12R
FORT DODGE     CLEAR     48  46  93 CALM      30.15S
MARSHALLTOWN     N/A     48  48 100 W3        30.13R
CEDAR RAPIDS   CLEAR     48  47  96 W7        30.10S
$$

...NORTHERN ILLINOIS...


CITY           SKY/WX    TMP DP  RH WIND       PRES   REMARKS
CHICAGO-OHARE  CLEAR     61  50  67 W9        30.03R
CHICAGO-MIDWAY CLEAR     61  52  72 NW6       30.03R
MOLINE         CLEAR     53  51  93 CALM      30.09R
ROCKFORD       PTCLDY    55  50  83 CALM      30.07R
PEORIA         CLEAR     56  53  90 NW3       30.09R
$$

NOTE: "FAIR" INDICATES FEW OR NO CLOUDS BELOW 12,000 FEET WITH NO
SIGNIFICANT WEATHER AND/OR OBSTRUCTIONS TO VISIBILITY. WIND
SPEEDS ARE IN MILES-PER-HOUR.




USA.gov is the U.S. government's official web portal to all federal, state and local government web resources and services.